Regional Weather Roundup
Issued by NWS Burlington, VT

Home | Current Version | Previous Version | Text Only | Print | Product List | Glossary On
Versions: 1 2 3 4 5 6 7 8 9 10 11 12 13 14 15 16 17 18 19 20 21 22 23 24 25 26 27 28 29 30 31 32 33 34 35 36 37 38 39 40 41 42 43 44 45 46 47 48 49 50
000
ASUS41 KBTV 201710
RWRBTV
VERMONT REGIONAL WEATHER ROUNDUP
NATIONAL WEATHER SERVICE BURLINGTON VT
100 PM EDT THU JUL 20 2017

NOTE: "FAIR" INDICATES FEW OR NO CLOUDS BELOW 12,000 FEET WITH NO
SIGNIFICANT WEATHER AND/OR OBSTRUCTIONS TO VISIBILITY.

* THESE REPORTS ARE NOT UNDER NWS QUALITY CONTROL AND/OR DO NOT
  REPORT WEATHER SUCH AS PRECIPITATION AND FOG.

VTZ001>019-201800-
_____VERMONT_____


CITY           SKY/WX    TMP DP  RH WIND       PRES   REMARKS
BURLINGTON     PTSUNNY   85  66  53 SE5       29.88F
MONTPELIER     MOSUNNY   82  60  47 N3        29.96F
MORRISVILLE    CLOUDY    82  63  52 N9        29.92F
ST. JOHNSBURY*   N/A     83  64  52 MISG      29.88F
LYNDONVILLE*   FAIR      81  63  53 W3        29.94F
MIDDLEBURY*    FAIR      83  66  56 S5        29.90F
RUTLAND*       CLOUDY    82  68  62 S7        29.92F
SPRINGFIELD    MOSUNNY   84  65  52 W6        29.92F
HIGHGATE*      FAIR      82  66  58 S5        29.87F
NEWPORT*       FAIR      78  63  58 NW5       29.92F
BENNINGTON     MOSUNNY   82  68  62 SW9       29.95F
SUTTON*          N/A     81 N/A N/A MISG        N/A

_____LAKE CHAMPLAIN_____


CITY           SKY/WX    TMP DP  RH WIND       PRES   REMARKS
BURTON ISLAND*   N/A     79  70  73 NW1         N/A
COLCHESTER RF*   N/A     75  72  88 SE5         N/A
DIAMOND ISL*     N/A     81  68  65 SE1         N/A

$$

NYZ007-026>031-035-052-083-087-201800-
_____NORTHERN NEW YORK_____


CITY           SKY/WX    TMP DP  RH WIND       PRES   REMARKS
PLATTSBURGH    MOSUNNY   80  66  62 E6        29.88S
SARANAC LAKE   MOSUNNY   76  58  53 SW8       29.96S
MASSENA        MOSUNNY   84  69  60 SW12      29.90F
OGDENSBURG*    FAIR      80  69  69 SW7       29.92S
POTSDAM*       SUNNY     79  68  69 SW9       29.93S
WATERTOWN      PTSUNNY   73  68  84 W9        29.98R
FT DRUM        PTSUNNY   75  61  61 W8        29.97R
ALBANY         PTSUNNY   86  67  52 W3        29.92
GLENS FALLS    CLOUDY    82  71  69 S7        29.90F

$$
NHZ002-005-011-201800-
_____NEW HAMPSHIRE_____


CITY           SKY/WX    TMP DP  RH WIND       PRES   REMARKS
LEBANON        PTSUNNY   85  64  49 W9        29.90F
KEENE          PTSUNNY   84  68  58 SW8       29.92F
MT WASHINGTON  FOG       54  54 100 W20         N/A  VSB 1/16
PLYMOUTH       FAIR      83  61  47 CALM      29.90F
WHITEFIELD     SUNNY     83  62  49 VRB6      29.92F

$$

_____REGIONAL QUEBEC LOCATIONS_____


CITY           SKY/WX    TMP DP  RH WIND       PRES   REMARKS
MONTREAL       PTSUNNY   81  68  65 S9        29.87F
QUEBEC CITY    MOSUNNY   75  66  73 SW10      29.86F
SHERBROOKE     PTSUNNY   77  66  69 NW6       29.90F

_____REGIONAL ONTARIO LOCATIONS_____


CITY           SKY/WX    TMP DP  RH WIND       PRES   REMARKS
OTTAWA         PTSUNNY   82  66  57 W10       29.88F

______KEY______
VSB  - VISIBILITY IN MILES
WCI  - WIND CHILL INDEX
HX   - HEAT INDEX
$$
NNNN



USA.gov is the U.S. government's official web portal to all federal, state and local government web resources and services.